Wind_Speed
15 15 15 15 13 12 11 11 10 8 7 5 3 1 2 4 4 4 5 5 6 6 6 6 6 7 6 5 5 5 4 4 4 4 4 4 4 4 5 5 6 7 7
14 14 15 15 14 13 12 11 11 10 7 5 3 2 2 4 4 4 5 6 6 6 6 7 7 7 7 7 6 6 5 5 5 5 6 6 6 6 7 7 8 8 9
14 14 15 15 14 14 13 11 11 10 8 5 3 3 2 3 4 4 5 6 6 6 6 7 7 8 8 8 7 7 6 6 6 7 7 8 8 8 8 9 9 10 11
14 14 15 15 14 14 14 11 10 9 8 6 4 3 2 2 3 4 5 6 6 6 6 7 7 8 8 9 9 8 8 8 8 8 8 9 9 10 10 11 11 12 13
14 14 15 14 14 14 13 11 9 8 8 7 5 3 1 2 2 3 5 6 7 7 7 7 7 8 8 9 9 9 9 9 9 9 10 11 11 12 12 13 14 14 15
14 15 15 14 14 14 12 10 8 8 7 6 5 4 3 3 3 4 5 5 6 7 7 7 7 8 8 9 10 11 11 11 11 11 12 12 13 13 14 14 15 16 16
14 15 15 15 15 13 12 9 8 7 7 6 6 5 4 4 4 5 5 6 7 8 8 9 9 9 9 10 11 12 12 13 13 13 14 14 15 15 16 16 16 17 18
14 15 15 15 15 13 11 9 7 7 6 6 6 6 5 5 5 6 6 7 7 8 9 10 10 10 11 12 12 12 13 14 14 15 15 16 16 17 17 17 18 19 19
13 14 14 15 14 12 10 9 8 8 7 6 6 6 6 6 6 7 7 7 8 9 10 10 11 11 12 13 14 14 14 15 15 16 16 16 17 18 18 19 19 20 20
13 14 14 15 14 12 11 10 9 8 8 7 7 7 7 7 7 7 7 8 9 10 10 11 11 11 12 13 14 15 15 15 15 16 16 17 18 19 20 20 20 20 21
14 14 15 14 14 13 12 12 11 11 10 8 8 7 7 8 8 8 8 9 10 10 11 11 11 12 12 13 13 14 15 16 16 17 18 18 19 19 20 21 21 22 21
14 14 15 15 15 14 13 13 12 12 10 9 9 8 9 9 10 10 10 10 11 11 12 12 12 12 13 14 14 15 15 16 17 18 19 19 20 21 21 21 21 21 22
14 15 15 16 16 15 15 14 13 12 11 10 10 9 10 10 11 11 11 11 11 11 12 12 13 13 13 14 15 16 16 17 17 18 18 19 19 20 21 22 22 22 23
14 15 16 16 16 16 16 15 14 13 12 11 11 11 11 10 11 11 11 11 11 11 11 12 13 13 14 15 16 17 17 18 19 19 20 20 21 21 21 22 23 24 25
15 16 17 17 17 17 17 16 15 14 14 13 12 12 13 12 12 12 12 12 12 12 12 13 14 15 15 16 17 18 19 19 20 20 21 22 23 23 24 24 24 25 27
16 17 18 18 18 18 18 17 16 16 15 14 14 13 14 14 13 13 13 13 13 13 13 14 15 16 17 18 18 19 20 21 22 22 23 24 25 25 26 26 26 27 28
17 18 18 18 18 18 18 18 17 16 16 16 16 16 15 15 15 15 15 14 14 14 15 15 17 17 18 19 21 22 22 23 24 24 24 24 25 26 27 27 27 28 29
18 17 18 18 19 19 19 19 19 19 18 18 18 17 17 17 17 17 17 16 16 16 17 18 19 19 20 21 22 23 23 23 24 24 25 25 26 26 26 27 28 29 29
19 20 20 20 21 21 20 20 20 20 20 20 19 19 19 19 19 18 19 19 19 19 19 20 21 21 21 21 22 23 23 24 25 25 25 26 26 26 26 27 28 30 30
21 22 22 22 22 22 22 21 21 21 21 21 21 20 20 20 20 21 20 21 21 21 21 22 22 22 22 22 23 24 25 25 25 26 26 27 28 28 28 29 30 31 31
24 24 24 23 23 23 23 23 22 23 23 22 21 21 22 22 22 22 21 21 22 22 23 23 24 24 24 24 24 25 26 26 26 26 27 28 29 29 30 31 31 31 31
24 25 25 24 24 24 24 24 24 24 24 23 23 22 22 23 23 23 23 22 22 22 23 24 25 25 25 25 26 26 27 27 27 27 27 28 29 29 30 31 31 31 32
26 26 26 26 26 26 26 26 26 25 25 25 24 24 24 24 24 24 24 23 23 23 24 25 25 25 26 26 27 27 28 28 28 28 28 30 31 32 32 32 32 32 32
27 27 27 28 28 28 27 27 26 26 26 26 26 26 26 25 25 25 25 25 24 24 25 26 26 27 27 27 28 28 28 28 29 29 30 32 32 33 33 32 32 33 33
28 29 29 29 29 28 27 28 27 28 27 27 27 26 26 25 25 25 26 26 25 25 26 26 27 28 29 30 30 30 30 30 31 31 32 33 33 34 34 34 34 34 34
28 29 29 30 29 29 29 29 29 29 29 29 29 28 26 26 27 27 27 27 27 27 28 28 29 30 31 32 32 32 32 33 33 33 33 33 34 34 34 34 34 34 33
Wind_Direction
4 6 6 7 6 2 0 358 355 352 351 342 335 291 227 213 209 208 210 204 205 204 207 211 211 213 215 218 221 225 230 236 238 247 256 263 269 271 275 275 271 270 271
1 2 2 3 3 0 355 353 354 356 355 344 316 289 252 223 213 214 215 211 211 213 212 216 219 219 221 223 224 229 236 241 247 251 256 261 265 270 275 278 278 277 277
358 359 357 356 357 357 355 352 354 355 356 352 321 285 269 237 226 228 217 211 217 222 224 228 229 231 232 232 231 234 239 248 256 258 261 264 265 271 275 277 279 279 279
358 356 354 353 352 353 354 350 351 354 356 0 349 316 264 248 236 233 225 223 227 230 234 238 240 240 240 239 239 239 243 249 257 262 267 269 270 273 276 278 280 282 282
357 356 355 353 353 351 350 350 351 353 352 353 356 344 290 252 244 241 233 233 234 239 246 249 247 246 244 243 242 245 249 254 258 263 268 270 273 274 275 277 279 282 283
353 352 354 353 352 350 350 352 352 353 351 350 351 340 311 281 263 255 245 245 244 248 252 253 252 250 249 250 251 254 258 262 264 266 269 271 273 275 276 278 279 282 285
349 349 351 352 349 349 349 351 353 352 350 350 346 334 310 298 282 263 259 254 254 255 257 256 258 257 259 259 259 260 262 264 265 267 269 271 273 276 277 280 282 282 284
347 349 350 351 350 351 349 349 352 347 341 339 336 329 316 298 289 278 268 263 262 263 262 259 262 262 262 263 264 265 266 267 269 271 273 273 275 277 278 281 282 282 284
344 348 349 350 351 350 347 347 347 342 336 332 326 323 316 309 298 285 276 268 265 266 265 264 264 264 264 265 267 267 268 269 270 273 274 275 277 278 279 281 282 282 282
339 343 345 348 349 347 343 339 334 331 331 327 324 321 318 314 311 303 289 278 269 265 265 265 266 266 267 268 266 266 269 274 274 274 275 276 277 279 281 282 282 281 283
332 337 340 342 345 344 339 334 333 328 325 320 314 313 313 312 310 304 294 285 276 272 271 271 269 267 270 272 272 272 272 275 277 279 279 280 280 282 283 284 282 283 284
323 330 334 337 339 340 339 332 329 327 326 320 313 308 308 309 307 298 294 289 282 276 275 273 272 272 274 273 274 276 279 280 280 282 283 283 283 284 284 285 286 285 285
316 323 328 331 334 336 337 333 328 325 320 316 311 305 305 305 305 301 296 290 284 279 277 273 275 277 277 277 276 278 280 283 284 285 286 287 287 288 287 287 287 287 287
313 318 322 325 327 330 331 331 328 323 316 310 308 306 305 304 305 304 300 296 288 281 278 279 278 280 279 277 278 280 282 285 286 287 288 288 288 288 288 289 288 287 287
306 310 315 317 319 322 325 324 325 321 316 308 304 301 301 300 298 300 299 295 291 285 282 283 283 283 282 281 281 282 285 287 288 289 290 290 288 287 287 288 288 288 288
299 303 309 312 311 315 316 317 318 317 312 304 301 299 298 296 296 296 298 295 292 291 287 287 288 287 286 284 284 286 287 288 288 289 290 290 289 287 287 287 288 288 289
294 300 304 307 306 308 310 310 310 310 310 305 298 294 292 291 292 292 294 295 293 291 291 291 290 288 288 287 287 289 289 290 291 291 292 293 291 290 289 289 288 289 290
290 296 297 299 303 306 306 306 306 306 304 302 299 295 291 291 290 289 288 289 290 290 291 293 293 292 289 289 289 290 291 291 291 292 293 293 293 293 292 291 291 292 291
286 289 291 292 296 300 302 303 304 303 302 300 296 298 293 291 290 291 287 286 286 287 288 291 292 292 292 293 292 293 293 292 292 293 294 296 296 295 295 295 295 294 293
281 284 286 288 292 295 297 298 301 302 302 302 299 297 295 294 292 291 288 284 285 286 287 289 291 291 292 294 294 294 294 293 294 294 295 296 297 295 295 296 296 296 295
278 281 283 285 289 291 292 294 296 298 300 300 299 298 295 296 295 295 289 285 286 287 287 289 291 291 291 293 293 294 294 293 293 293 295 296 296 295 295 295 296 295 295
276 278 280 282 284 287 290 293 294 296 297 297 297 297 297 295 294 294 293 287 287 290 290 290 292 293 292 292 293 294 295 294 292 293 293 295 295 295 295 296 297 296 295
275 277 277 280 281 283 287 290 293 295 295 295 295 294 295 293 292 292 290 289 288 288 289 290 292 294 293 293 293 293 294 292 293 294 296 297 296 296 296 297 296 297 297
275 276 277 280 281 281 284 287 291 293 294 294 294 294 293 292 292 293 291 289 289 290 291 291 293 294 294 294 294 292 292 292 292 293 294 295 296 296 296 297 297 298 299
275 277 279 281 281 281 282 285 288 290 291 292 293 292 292 292 292 293 293 292 292 292 292 292 292 293 294 293 294 293 293 292 292 293 293 294 295 296 297 297 298 298 298
275 277 278 279 280 281 283 285 287 288 289 290 291 291 291 291 292 293 293 292 291 292 292 292 293 293 293 293 293 292 292 292 292 293 294 294 295 295 295 296 298 298 298
Height
5922 5919 5916 5913 5911 5908 5906 5904 5903 5901 5900 5899 5898 5898 5898 5898 5899 5899 5900 5900 5901 5902 5902 5903 5904 5904 5905 5905 5906 5906 5906 5907 5907 5907 5907 5907 5907 5907 5907 5906 5906 5906 5906
5922 5920 5917 5914 5911 5908 5906 5904 5902 5900 5899 5898 5898 5898 5897 5898 5898 5898 5899 5899 5900 5901 5901 5902 5903 5903 5904 5904 5905 5905 5906 5906 5906 5906 5906 5906 5907 5906 5905 5905 5905 5904 5904
5923 5920 5917 5914 5911 5908 5906 5903 5902 5900 5899 5898 5897 5897 5897 5897 5897 5897 5898 5898 5899 5900 5900 5901 5901 5902 5902 5903 5903 5904 5904 5905 5905 5905 5905 5905 5905 5904 5904 5903 5903 5902 5902
5923 5920 5917 5914 5911 5908 5906 5903 5901 5900 5898 5897 5896 5896 5896 5896 5896 5897 5897 5897 5898 5899 5899 5900 5900 5900 5901 5902 5902 5902 5902 5903 5903 5903 5903 5903 5903 5902 5902 5901 5901 5900 5899
5923 5920 5917 5914 5911 5908 5906 5903 5901 5900 5898 5897 5896 5896 5896 5895 5895 5896 5896 5896 5897 5897 5898 5898 5898 5899 5899 5900 5900 5900 5901 5901 5901 5901 5901 5901 5900 5899 5899 5899 5898 5897 5896
5923 5920 5917 5913 5911 5908 5905 5903 5901 5900 5898 5897 5896 5896 5895 5895 5895 5895 5895 5895 5895 5896 5896 5896 5896 5897 5897 5898 5898 5898 5898 5899 5899 5898 5898 5898 5897 5897 5896 5895 5894 5893 5892
5922 5919 5916 5913 5910 5907 5905 5903 5901 5900 5898 5897 5896 5895 5895 5894 5894 5894 5894 5894 5894 5894 5894 5894 5894 5895 5895 5895 5895 5895 5895 5896 5896 5895 5895 5895 5894 5894 5893 5892 5891 5889 5888
5922 5919 5916 5913 5909 5907 5904 5902 5901 5899 5898 5897 5896 5895 5894 5893 5893 5892 5892 5892 5892 5892 5892 5892 5892 5892 5892 5892 5892 5892 5892 5892 5892 5892 5891 5891 5890 5890 5889 5888 5887 5885 5884
5921 5918 5915 5912 5909 5906 5904 5902 5900 5898 5897 5896 5895 5894 5893 5892 5891 5891 5890 5890 5890 5890 5890 5889 5889 5889 5889 5889 5889 5889 5888 5888 5888 5887 5887 5887 5886 5885 5884 5883 5882 5881 5880
5920 5917 5915 5912 5909 5906 5903 5901 5899 5898 5896 5895 5894 5893 5892 5891 5890 5889 5888 5888 5888 5887 5887 5886 5886 5886 5886 5885 5885 5885 5885 5884 5884 5883 5882 5882 5881 5880 5879 5878 5877 5876 5875
5919 5917 5914 5911 5909 5906 5903 5900 5899 5897 5895 5894 5893 5892 5891 5890 5889 5887 5887 5886 5885 5885 5884 5884 5883 5883 5882 5882 5882 5882 5881 5881 5880 5879 5878 5877 5877 5875 5874 5873 5872 5871 5869
5918 5916 5913 5910 5908 5905 5902 5900 5897 5896 5894 5892 5891 5890 5889 5888 5887 5886 5885 5884 5883 5882 5881 5881 5880 5880 5879 5879 5878 5878 5877 5877 5876 5875 5874 5873 5872 5870 5869 5868 5866 5865 5863
5916 5914 5911 5909 5906 5904 5901 5899 5896 5895 5893 5891 5890 5889 5888 5887 5885 5884 5882 5881 5880 5879 5878 5878 5877 5877 5876 5876 5875 5874 5874 5873 5872 5870 5869 5868 5866 5865 5863 5862 5860 5859 5857
5914 5912 5909 5907 5905 5903 5900 5897 5895 5893 5892 5890 5889 5887 5886 5885 5883 5882 5880 5878 5877 5876 5875 5875 5874 5873 5873 5872 5871 5870 5869 5868 5867 5866 5864 5863 5861 5859 5858 5856 5854 5853 5851
5911 5909 5907 5905 5903 5900 5898 5896 5894 5892 5890 5888 5886 5885 5884 5882 5881 5879 5877 5876 5874 5873 5872 5872 5871 5870 5869 5868 5867 5866 5865 5863 5862 5860 5859 5857 5855 5853 5852 5850 5848 5846 5844
5908 5906 5904 5902 5900 5898 5896 5894 5892 5889 5887 5885 5884 5882 5881 5880 5878 5876 5875 5873 5871 5870 5869 5868 5867 5866 5865 5864 5862 5861 5860 5858 5857 5855 5853 5851 5849 5847 5845 5843 5841 5839 5837
5904 5903 5901 5899 5897 5895 5893 5891 5889 5887 5885 5882 5880 5879 5877 5876 5875 5873 5871 5870 5868 5867 5866 5864 5863 5862 5860 5859 5858 5856 5855 5853 5851 5848 5847 5845 5842 5840 5838 5836 5834 5832 5829
5900 5899 5897 5895 5893 5891 5889 5887 5885 5883 5881 5879 5877 5875 5873 5872 5870 5869 5867 5866 5865 5863 5862 5860 5859 5857 5855 5854 5852 5851 5849 5847 5845 5843 5841 5838 5836 5833 5831 5829 5827 5824 5822
5896 5895 5893 5891 5890 5888 5885 5883 5881 5879 5877 5875 5872 5871 5869 5868 5866 5864 5862 5861 5860 5859 5857 5855 5854 5852 5850 5848 5847 5845 5843 5841 5839 5836 5834 5832 5829 5827 5824 5822 5819 5817 5814
5890 5889 5888 5887 5885 5883 5881 5879 5877 5875 5873 5870 5868 5866 5865 5863 5861 5859 5857 5856 5855 5853 5852 5850 5848 5846 5845 5843 5841 5839 5836 5834 5832 5830 5827 5825 5822 5819 5817 5814 5811 5809 5806
5884 5883 5882 5881 5880 5878 5876 5874 5872 5870 5868 5865 5863 5862 5860 5858 5856 5854 5852 5850 5849 5847 5846 5844 5842 5840 5838 5836 5834 5832 5830 5827 5825 5822 5820 5817 5815 5812 5810 5807 5804 5801 5798
5878 5877 5876 5875 5874 5872 5870 5868 5866 5864 5862 5860 5858 5856 5854 5852 5850 5848 5846 5845 5843 5841 5839 5838 5836 5834 5831 5829 5827 5825 5823 5820 5818 5816 5813 5810 5808 5805 5802 5799 5796 5793 5790
5871 5870 5869 5868 5867 5866 5864 5862 5860 5858 5856 5855 5853 5850 5848 5846 5845 5842 5840 5838 5836 5835 5833 5831 5829 5827 5825 5822 5820 5818 5815 5813 5811 5808 5806 5803 5800 5797 5794 5791 5788 5785 5781
5864 5863 5862 5861 5860 5858 5857 5855 5854 5852 5850 5848 5846 5844 5842 5840 5838 5836 5834 5832 5829 5828 5826 5824 5822 5820 5818 5815 5813 5811 5808 5806 5803 5800 5798 5795 5792 5789 5786 5782 5779 5776 5772
5857 5856 5855 5854 5852 5851 5850 5848 5847 5845 5843 5841 5839 5837 5835 5833 5831 5829 5827 5825 5823 5821 5819 5817 5815 5813 5810 5808 5806 5803 5800 5798 5795 5792 5789 5786 5783 5780 5777 5774 5770 5767 5763
5849 5848 5847 5846 5845 5844 5843 5841 5840 5838 5836 5834 5832 5830 5828 5825 5823 5821 5820 5817 5815 5813 5811 5809 5807 5804 5802 5800 5797 5795 5792 5789 5786 5783 5780 5777 5774 5771 5768 5765 5761 5758 5754